commentcamarche.net alexa rank chart, commentcamarche.net alexa rank daily changes

commentcamarche.net alexa rank chart, commentcamarche.net alexa rank daily changes

commentcamarche.net
Actual rank:
1 831

RANK HISTORY

Date Rank Diff
2019/12/08 1 831 +198
2019/12/07 1 633 -394
2019/12/06 2 027 +442
2019/12/05 1 585 -194
2019/12/04 1 779 -35
2019/12/03 1 814 -422
2019/12/02 2 236 -401
2019/12/01 2 637 +1 333
2019/11/30 1 304 -946
2019/11/29 2 250 +675
2019/11/28 1 575 -556
2019/11/27 2 131 -204
2019/11/26 2 335 -42
2019/11/25 2 377 +406
2019/11/24 1 971 +518
2019/11/23 1 453 -431
2019/11/22 1 884 -103
2019/11/21 1 987 -106
2019/11/20 2 093 +10
2019/11/19 2 083 +405
2019/11/18 1 678 +360
2019/11/17 1 318 -176
2019/11/16 1 494 -28
2019/11/15 1 522 +68
2019/11/14 1 454 -533
2019/11/13 1 987 +293
2019/11/12 1 694 +643
2019/11/11 1 051 -104
2019/11/10 1 155 -399
2019/11/09 1 554 -324
2019/11/08 1 878 -164
2019/11/07 2 042 +591
2019/11/06 1 451 -158
2019/11/05 1 609 +313
2019/11/04 1 296 +236
2019/11/03 1 060 -208
2019/11/02 1 268 +45
2019/11/01 1 223 -258
2019/10/31 1 481 -15
2019/10/30 1 496 +372
2019/10/29 1 124 -727
2019/10/28 1 851 +39
2019/10/27 1 812 +360
2019/10/26 1 452 +200
2019/10/25 1 252 +51
2019/10/24 1 201 -55
2019/10/23 1 256 -307
2019/10/22 1 563 +276
2019/10/21 1 287 -94
2019/10/20 1 381 +25
2019/10/19 1 356 -275
2019/10/18 1 631 +329
2019/10/17 1 302 -256
2019/10/16 1 558 +323
2019/10/15 1 235 +15
2019/10/14 1 220 -493
2019/10/13 1 713 +153
2019/10/12 1 560 +233
2019/10/11 1 327 -523
2019/10/10 1 850 +650
2019/10/09 1 200

WIDGET FOR YOUR SITE

DOMAINS WITH THE NEAREST RANK

Domain Rank
rctiplus.com 1 826
khabaronline.ir 1 827
popfa.ir 1 828
match.com 1 829
megadede.com 1 830
commentcamarche.net 1 831
leo.org 1 832
joins.com 1 833
disney.go.com 1 834
mydramalist.com 1 835
linguee.com 1 836

DOMAINS WITH THE NEAREST RANK BY TLD .net

Domain Rank
cityheaven.net 1 721
spectrum.net 1 736
windows.net 1 761
office.net 1 780
jjwxc.net 1 805
commentcamarche.net 1 831
yandex.net 1 842
alsolta.net 1 872
template.net 1 897
liquipedia.net 1 909
zaycev.net 1 958